#timestamp,LO_Frequency,Hit,StdDev 
1514980815.2,286046995.0,N
1514980835.0,286047000.8,N
1514980835.9,286047000.8,N
1514980855.8,286046999.4,N
1514980875.6,286047000.7,N
1514980895.4,286046998.8,N
1514980915.2,286047001.1,N
1514980935.1,286047002.2,N
1514980936.0,286047002.2,N
1514980955.8,286047004.4,N
1514980975.6,286047002.5,N
1514980995.5,286047003.6,N
1514981015.3,286047000.9,N
1514981035.1,286047000.0,N
1514981055.9,286047000.5,N
1514981075.7,286047000.8,N
1514981095.5,286047002.2,N
1514981115.4,286047002.3,N
1514981135.2,286047004.7,N
1514981155.0,286047009.1,N
1514981155.9,286047009.1,N
1514981175.8,286047007.0,N
1514981195.6,286047008.9,N
1514981215.4,286047007.5,N
1514981235.3,286047005.4,N
1514981255.1,286047007.4,N
1514981256.0,286047007.4,N
1514981275.8,286047006.1,N
1514981295.7,286047010.5,N
1514981315.5,286047013.4,Y
1514981335.3,286047008.3,P
1514981355.2,286047010.0,P
1514981375.9,286047009.1,P
1514981395.7,286047005.7,N
1514981415.6,286047009.2,Y
1514981435.4,286047003.8,P
1514981455.2,286047003.8,N
1514981475.0,286047003.0,N
1514981476.0,286047003.0,N
1514981495.8,286047007.6,Y
1514981515.6,286047002.1,P
1514981535.5,286047000.3,N
1514981555.3,286046998.8,N
1514981575.1,286046996.2,N
1514981595.8,286046995.8,N
1514981615.7,286046993.5,N
1514981635.5,286046997.5,N
1514981655.3,286046996.5,N
1514981675.2,286046997.2,N
1514981695.9,286047000.5,N
1514981715.7,286046999.5,N
1514981735.6,286046997.6,N
1514981755.4,286046997.9,N
1514981775.2,286046997.5,N
1514981795.1,286046998.7,N
1514981796.0,286046998.7,N
1514981815.8,286046998.4,N
1514981835.6,286046998.5,N
1514981855.5,286046997.2,N
1514981875.3,286046997.8,N
1514981895.1,286046993.4,Y
1514981915.9,286046998.3,P
1514981935.7,286046996.7,P
1514981955.5,286046996.5,P
1514981975.4,286046995.2,Y
1514981995.2,286046997.2,P
1514982015.0,286046997.3,P
1514982015.9,286046997.3,P
1514982035.8,286046996.8,Y
1514982055.6,286046999.7,P
1514982075.4,286046998.6,N
1514982095.3,286047000.6,N
1514982115.1,286047002.4,N
1514982116.0,286047002.4,N
1514982135.8,286047002.8,N
1514982155.7,286047007.0,Y
1514982175.5,286047007.6,P
1514982195.3,286047008.2,N
1514982215.1,286047010.5,P
1514982235.9,286047004.7,N
1514982255.7,286047005.8,N
1514982275.5,286047003.0,N
1514982295.4,286047009.6,Y
1514982315.2,286047006.8,P
1514982335.0,286047008.1,P
1514982335.9,286047008.1,P
1514982355.8,286047009.3,Y
1514982375.6,286047005.4,P
1514982395.5,286047005.6,P
1514982415.3,286047010.6,P
1514982435.1,286047015.5,Y
1514982455.9,286047012.4,P
1514982475.7,286047009.8,P
1514982495.5,286047010.4,P
1514982515.4,286047012.3,Y
1514982535.2,286046998.2,P
1514982555.0,286047000.2,N
1514982555.9,286047000.2,N
1514982575.8,286047002.4,N
1514982595.6,286047001.9,N
1514982615.4,286046999.6,N
1514982635.2,286046993.7,N
1514982655.1,286046997.2,N
1514982656.0,286046997.2,N
1514982675.8,286046995.7,N
1514982695.6,286046996.2,N
1514982715.5,286046996.0,N
1514982735.3,286046996.7,N
1514982755.1,286046999.6,N
1514982775.9,286047001.0,N
1514982795.7,286046999.8,N
1514982815.5,286046998.4,N
1514982835.4,286046998.7,N
1514982855.2,286046996.1,N
1514982875.0,286046998.7,N
1514982875.9,286046998.7,N
1514982895.8,286047001.0,N
1514982915.6,286047002.2,N
1514982935.4,286047005.6,N
1514982955.2,286047005.4,N
1514982975.1,286047003.3,N
1514982976.0,286047003.3,N
1514982995.8,286047001.6,N
1514983015.6,286046999.7,N
1514983035.5,286047003.8,N
1514983055.3,286047008.8,Y
1514983075.1,286047007.2,P
1514983095.9,286047001.5,N
1514983115.7,286047004.4,N
1514983135.5,286047006.6,N
1514983155.4,286047008.7,Y
1514983175.2,286047003.3,P
1514983195.0,286047004.3,P
1514983195.9,286047004.3,P
1514983215.8,286047001.6,Y
1514983235.6,286047005.5,P
1514983255.4,286047009.4,P
1514983275.3,286047014.0,P
1514983295.1,286047009.4,N
1514983315.9,286047012.2,Y
1514983335.7,286047010.0,P
1514983355.5,286047013.4,P
1514983375.3,286047013.8,P
1514983395.2,286047015.8,Y
1514983415.0,286047008.0,P
1514983415.9,286047008.0,P
1514983435.8,286047011.9,P
1514983455.6,286047010.2,Y
1514983475.4,286046998.7,P
1514983495.3,286047000.2,N
1514983515.1,286047000.1,N
1514983516.0,286047000.1,N
1514983535.8,286047005.4,N
1514983555.6,286047008.0,N
1514983575.5,286047007.9,N
1514983595.3,286047010.0,N
1514983615.1,286047012.3,N
1514983635.9,286047010.5,N
1514983655.7,286047011.4,N
1514983675.5,286047013.9,N
1514983695.4,286047009.5,N
1514983715.2,286047006.3,N
1514983735.0,286047006.8,N
1514983735.9,286047006.8,N
1514983755.8,286047005.5,N
1514983775.6,286047004.7,N
1514983795.4,286047005.6,N
1514983815.3,286047003.4,N
1514983835.1,286047007.2,N
1514983836.0,286047007.2,N
1514983855.8,286047003.8,N
1514983875.6,286047002.0,N
1514983895.5,286046999.7,N
1514983915.3,286046998.4,N
1514983935.1,286046995.0,N
1514983955.9,286046991.9,N
1514983975.7,286046991.3,N
1514983995.5,286046989.3,N
1514984015.4,286046984.0,N
1514984035.2,286046984.6,N
1514984055.0,286046981.7,N
1514984055.9,286046981.7,N
1514984075.8,286046977.4,N
1514984095.6,286046980.4,N
1514984115.4,286046979.8,N
1514984135.3,286046981.8,N
1514984155.1,286046977.3,N
1514984156.0,286046977.3,N
1514984175.8,286046979.1,N
1514984195.6,286046979.4,N
1514984215.5,286046975.9,N
1514984235.3,286046977.4,N
1514984255.1,286046979.4,N
1514984275.9,286046976.2,N
1514984295.7,286046977.2,N
1514984315.5,286046974.6,N
1514984335.4,286046977.0,N
1514984355.2,286046976.6,N
1514984375.0,286046977.5,N
1514984375.9,286046977.5,N
1514984395.8,286046982.8,N
